EN

Hourly Weather Melbourne

Today, 24 October, Saturday

Time Temperature Precipitation Wind Pressure Humidity
00:00 +16°C° 0.6 mm 2 mps 751 mmHg 94%
01:00 +16°C° 0.6 mm 2 mps 751 mmHg 95%
02:00 +16°C° 1.7 mm 3 mps 751 mmHg 95%
03:00 +16°C° 1.7 mm 3 mps 751 mmHg 95%
04:00 +14°C° 0 mm 5 mps 751 mmHg 96%
05:00 +14°C° 1.6 mm 5 mps 751 mmHg 94%
06:00 +13°C° 1.6 mm 5 mps 752 mmHg 93%
07:00 +13°C° 1.6 mm 6 mps 752 mmHg 91%
08:00 +12°C° 0.4 mm 5 mps 753 mmHg 89%
09:00 +12°C° 0.4 mm 5 mps 753 mmHg 87%
10:00 +12°C° 0.4 mm 5 mps 754 mmHg 85%
11:00 +12°C° 0.1 mm 5 mps 754 mmHg 81%
12:00 +13°C° 0.1 mm 6 mps 754 mmHg 77%
13:00 +13°C° 0.1 mm 6 mps 754 mmHg 73%
14:00 +13°C° 0 mm 6 mps 755 mmHg 70%
15:00 +12°C° 0 mm 7 mps 755 mmHg 66%
16:00 +12°C° 0 mm 8 mps 755 mmHg 62%
17:00 +11°C° 0 mm 7 mps 756 mmHg 62%
18:00 +10°C° 0 mm 6 mps 756 mmHg 61%
19:00 +9°C° 0 mm 6 mps 757 mmHg 61%
20:00 +9°C° 0 mm 5 mps 758 mmHg 61%
21:00 +9°C° 0 mm 5 mps 758 mmHg 60%
22:00 +10°C° 0 mm 5 mps 759 mmHg 60%
23:00 +9°C° 0.1 mm 5 mps 759 mmHg 65%

Tomorrow, 25 October, Sunday

Time Temperature Precipitation Wind Pressure Humidity
00:00 +9°C° 0.1 mm 6 mps 759 mmHg 71%
01:00 +8°C° 0.1 mm 6 mps 759 mmHg 76%
02:00 +8°C° 0.1 mm 7 mps 760 mmHg 74%
03:00 +6°C° 0.1 mm 7 mps 760 mmHg 72%
04:00 +6°C° 0.1 mm 7 mps 760 mmHg 70%
05:00 +6°C° 0 mm 7 mps 761 mmHg 66%
06:00 +6°C° 0 mm 7 mps 762 mmHg 62%
07:00 +6°C° 0 mm 7 mps 763 mmHg 59%
08:00 +9°C° 0 mm 7 mps 763 mmHg 55%
09:00 +10°C° 0 mm 7 mps 763 mmHg 51%
10:00 +11°C° 0 mm 7 mps 764 mmHg 47%
11:00 +11°C° 0 mm 7 mps 764 mmHg 52%
12:00 +11°C° 0 mm 7 mps 764 mmHg 57%
13:00 +10°C° 0 mm 6 mps 763 mmHg 62%
14:00 +11°C° 0 mm 7 mps 764 mmHg 61%
15:00 +11°C° 0 mm 7 mps 764 mmHg 60%
16:00 +11°C° 0 mm 7 mps 764 mmHg 59%
17:00 +11°C° 0 mm 6 mps 765 mmHg 60%
18:00 +10°C° 0 mm 6 mps 765 mmHg 62%
19:00 +9°C° 0 mm 6 mps 766 mmHg 64%
20:00 +9°C° 0 mm 6 mps 766 mmHg 64%
21:00 +9°C° 0 mm 6 mps 766 mmHg 65%
22:00 +8°C° 0 mm 6 mps 767 mmHg 65%
23:00 +8°C° 0 mm 6 mps 767 mmHg 66%

Day after tomorrow, 26 October, Monday

Time Temperature Precipitation Wind Pressure Humidity
00:00 +8°C° 0 mm 5 mps 767 mmHg 67%
01:00 +8°C° 0 mm 5 mps 767 mmHg 68%
02:00 +7°C° 0 mm 5 mps 767 mmHg 70%
03:00 +7°C° 0 mm 5 mps 766 mmHg 71%
04:00 +7°C° 0 mm 5 mps 766 mmHg 72%
05:00 +8°C° 0 mm 6 mps 767 mmHg 69%
06:00 +8°C° 0 mm 6 mps 767 mmHg 65%
07:00 +9°C° 0 mm 6 mps 767 mmHg 61%
08:00 +11°C° 0 mm 6 mps 767 mmHg 57%
09:00 +12°C° 0 mm 7 mps 767 mmHg 52%
10:00 +15°C° 0 mm 7 mps 767 mmHg 47%
11:00 +16°C° 0 mm 6 mps 766 mmHg 43%
12:00 +17°C° 0 mm 6 mps 766 mmHg 39%
13:00 +19°C° 0 mm 6 mps 765 mmHg 35%
14:00 +19°C° 0 mm 6 mps 765 mmHg 36%
15:00 +19°C° 0 mm 6 mps 765 mmHg 37%
16:00 +19°C° 0 mm 6 mps 765 mmHg 38%
17:00 +17°C° 0 mm 6 mps 765 mmHg 42%
18:00 +15°C° 0 mm 7 mps 766 mmHg 46%
19:00 +12°C° 0 mm 7 mps 766 mmHg 50%
20:00 +11°C° 0 mm 6 mps 766 mmHg 54%
21:00 +10°C° 0 mm 6 mps 767 mmHg 58%
22:00 +9°C° 0 mm 5 mps 767 mmHg 62%
23:00 +8°C° 0 mm 5 mps 767 mmHg 66%

, 27 October, Tuesday

Time Temperature Precipitation Wind Pressure Humidity
00:00 +8°C° 0 mm 4 mps 767 mmHg 70%
01:00 +7°C° 0 mm 4 mps 767 mmHg 74%
02:00 +7°C° 0 mm 4 mps 767 mmHg 76%
03:00 +8°C° 0 mm 3 mps 767 mmHg 78%
04:00 +7°C° 0 mm 3 mps 767 mmHg 80%
05:00 +8°C° 0 mm 3 mps 767 mmHg 77%
06:00 +9°C° 0 mm 3 mps 767 mmHg 75%
07:00 +10°C° 0 mm 3 mps 767 mmHg 73%
08:00 +12°C° 0 mm 3 mps 767 mmHg 65%
09:00 +14°C° 0 mm 3 mps 767 mmHg 58%
10:00 +17°C° 0 mm 4 mps 766 mmHg 50%
11:00 +18°C° 0 mm 4 mps 766 mmHg 48%
12:00 +18°C° 0 mm 4 mps 766 mmHg 47%
13:00 +19°C° 0 mm 4 mps 766 mmHg 45%
14:00 +19°C° 0 mm 5 mps 765 mmHg 47%
15:00 +19°C° 0 mm 5 mps 765 mmHg 49%
16:00 +17°C° 0 mm 5 mps 765 mmHg 51%
17:00 +16°C° 0 mm 5 mps 765 mmHg 56%
18:00 +15°C° 0 mm 6 mps 765 mmHg 61%
19:00 +14°C° 0 mm 6 mps 765 mmHg 66%
20:00 +13°C° 0 mm 6 mps 766 mmHg 69%
21:00 +12°C° 0 mm 5 mps 766 mmHg 73%
22:00 +10°C° 0 mm 5 mps 766 mmHg 76%
23:00 +11°C° 0 mm 4 mps 766 mmHg 78%

27 October, Tuesday

Time Temperature Precipitation Wind Pressure Humidity
00:00 +8°C° 0 mm 4 mps 767 mmHg 70%
01:00 +7°C° 0 mm 4 mps 767 mmHg 74%
02:00 +7°C° 0 mm 4 mps 767 mmHg 76%
03:00 +8°C° 0 mm 3 mps 767 mmHg 78%
04:00 +7°C° 0 mm 3 mps 767 mmHg 80%
05:00 +8°C° 0 mm 3 mps 767 mmHg 77%
06:00 +9°C° 0 mm 3 mps 767 mmHg 75%
07:00 +10°C° 0 mm 3 mps 767 mmHg 73%
08:00 +12°C° 0 mm 3 mps 767 mmHg 65%
09:00 +14°C° 0 mm 3 mps 767 mmHg 58%
10:00 +17°C° 0 mm 4 mps 766 mmHg 50%
11:00 +18°C° 0 mm 4 mps 766 mmHg 48%
12:00 +18°C° 0 mm 4 mps 766 mmHg 47%
13:00 +19°C° 0 mm 4 mps 766 mmHg 45%
14:00 +19°C° 0 mm 5 mps 765 mmHg 47%
15:00 +19°C° 0 mm 5 mps 765 mmHg 49%
16:00 +17°C° 0 mm 5 mps 765 mmHg 51%
17:00 +16°C° 0 mm 5 mps 765 mmHg 56%
18:00 +15°C° 0 mm 6 mps 765 mmHg 61%
19:00 +14°C° 0 mm 6 mps 765 mmHg 66%
20:00 +13°C° 0 mm 6 mps 766 mmHg 69%
21:00 +12°C° 0 mm 5 mps 766 mmHg 73%
22:00 +10°C° 0 mm 5 mps 766 mmHg 76%
23:00 +11°C° 0 mm 4 mps 766 mmHg 78%

28 October, Wednesday

Time Temperature Precipitation Wind Pressure Humidity
00:00 +11°C° 0 mm 4 mps 766 mmHg 79%
01:00 +10°C° 0 mm 3 mps 765 mmHg 81%
02:00 +10°C° 0 mm 3 mps 765 mmHg 82%
03:00 +10°C° 0 mm 3 mps 765 mmHg 84%
04:00 +9°C° 0 mm 3 mps 765 mmHg 86%
05:00 +10°C° 0 mm 3 mps 765 mmHg 83%
06:00 +12°C° 0 mm 2 mps 765 mmHg 81%
07:00 +12°C° 0 mm 2 mps 766 mmHg 79%
08:00 +15°C° 0 mm 2 mps 765 mmHg 68%
09:00 +17°C° 0 mm 2 mps 765 mmHg 58%
10:00 +19°C° 0 mm 2 mps 765 mmHg 48%
11:00 +20°C° 0 mm 3 mps 764 mmHg 47%
12:00 +21°C° 0 mm 4 mps 764 mmHg 46%
13:00 +21°C° 0 mm 4 mps 764 mmHg 46%
14:00 +21°C° 0.1 mm 5 mps 763 mmHg 49%
15:00 +20°C° 0.1 mm 5 mps 763 mmHg 53%
16:00 +20°C° 0.1 mm 6 mps 763 mmHg 56%
17:00 +19°C° 0 mm 5 mps 763 mmHg 60%
18:00 +16°C° 0 mm 5 mps 763 mmHg 65%
19:00 +15°C° 0 mm 5 mps 763 mmHg 69%
20:00 +14°C° 0 mm 5 mps 763 mmHg 73%
21:00 +13°C° 0 mm 4 mps 763 mmHg 77%
22:00 +12°C° 0 mm 4 mps 763 mmHg 81%
23:00 +12°C° 0 mm 4 mps 763 mmHg 83%

29 October, Thursday

Time Temperature Precipitation Wind Pressure Humidity
00:00 +11°C° 0 mm 3 mps 763 mmHg 84%
01:00 +11°C° 0 mm 3 mps 762 mmHg 86%
02:00 +12°C° 0 mm 2 mps 762 mmHg 87%
03:00 +10°C° 0 mm 2 mps 762 mmHg 88%
04:00 +10°C° 0 mm 2 mps 762 mmHg 89%
05:00 +12°C° 0 mm 2 mps 762 mmHg 87%
06:00 +13°C° 0 mm 2 mps 762 mmHg 84%
07:00 +13°C° 0 mm 1 mps 761 mmHg 82%
08:00 +16°C° 0 mm 1 mps 761 mmHg 73%
09:00 +19°C° 0 mm 1 mps 761 mmHg 63%
10:00 +21°C° 0 mm 1 mps 760 mmHg 54%
11:00 +22°C° 0 mm 1 mps 760 mmHg 53%
12:00 +21°C° 0 mm 2 mps 759 mmHg 51%
13:00 +22°C° 0 mm 3 mps 758 mmHg 49%
14:00 +22°C° 0.1 mm 3 mps 758 mmHg 51%
15:00 +21°C° 0.1 mm 3 mps 757 mmHg 53%
16:00 +21°C° 0.1 mm 4 mps 757 mmHg 55%
17:00 +20°C° 0.3 mm 4 mps 757 mmHg 61%
18:00 +18°C° 0.3 mm 3 mps 757 mmHg 67%
19:00 +17°C° 0.3 mm 3 mps 757 mmHg 72%
20:00 +16°C° 0.1 mm 3 mps 757 mmHg 74%
21:00 +14°C° 0.1 mm 3 mps 757 mmHg 76%
22:00 +14°C° 0.1 mm 3 mps 757 mmHg 77%
23:00 +13°C° 0 mm 3 mps 757 mmHg 79%
Show more

We Need Your Consent

Meteoprog and our Service Providers may store and access personal data such as cookies, device identifiers or other similar technologies on your device and process such data to personalise content and ads, as well as provide social media features and to analyse the traffic.

  • Store and/or access information on your device

    Cookies, device identifiers or other information can be stored or accessed on your device for the purposes indicated above.

  • Personalised ads and content, ad and content measurement, audience insights, and products development

    Ads and content can be personalised based on a profile. More data can be added to better personalise ads and content. Ad and content performance can be measured. Insights about the audience who saw the ads and content can be derived. Such data can be used to develop or improve user’s experience, systems and software.

By clicking ‘I Agree’ you will allow the use of indicated cookies, device identifiers, web beacons or other similar technologies. Your settings can be changed in the browser on your device.

For certain purposes, legitimate interests may be relied on, rather than consent. You can read more about this in our Privacy and Cookie Policy.